THAICOM 6

Last updated on Sun Apr 12 2026 00:02:53 GMT+0000 (Coordinated Universal Time)

1 39500U 14002A 26101.47406078 -.00000120 00000+0 00000+0 0 9992 2 39500 0.0671 105.1007 0003642 332.8771 10.9087 1.00272410 44788
UTC large
Height (km)
Speed (km/s)
/
Latitude / Longitude
Inclination (degrees)
Orbital Period (minutes)
Azimuth
Elevation
Range (km)
Doppler Factor

Next 0 passes for location: London (51.5072 / 0.1276)

Sorry there are no passes over London.
THAICOM 6